,,PA_Meas_PMT16A,,PR_Meas_QMR101_102,,RH_Meas_QMH101,,SR_Meas_QMS101,,TA_Meas_QMH101,,GenWind,,GenWind,
time,status,PA,status,PR,status,RH,status,SR,status,TA,status,DirAvg,status,SpdAvg,
2016-06-14, 07:46:04,VALID,918.794,VALID,0,INVALID,113.84,VALID,120.979,VALID,20.1513,VALID,106,VALID,0,
2016-06-14, 07:47:04,VALID,918.799,VALID,0,INVALID,113.97,VALID,123.342,VALID,20.2293,VALID,105,VALID,0,
2016-06-14, 07:48:04,VALID,918.801,VALID,0,INVALID,114.031,VALID,125.921,VALID,20.2684,VALID,106,VALID,0,
2016-06-14, 07:49:04,VALID,918.823,VALID,0,INVALID,114.206,VALID,129.574,VALID,20.3269,VALID,106,VALID,0,
2016-06-14, 07:50:04,VALID,918.839,VALID,0,INVALID,114.321,VALID,135.698,VALID,20.4064,VALID,105,VALID,0,
2016-06-14, 07:51:04,VALID,918.858,VALID,0,INVALID,114.275,VALID,193.072,VALID,20.3838,VALID,105,VALID,0,
2016-06-14, 07:52:04,VALID,918.891,VALID,0,INVALID,114.13,VALID,296.43,VALID,20.4244,VALID,104,VALID,0,
2016-06-14, 07:53:04,VALID,918.871,VALID,0,INVALID,114.298,VALID,358.316,VALID,20.6179,VALID,105,VALID,0,
2016-06-14, 07:54:04,VALID,918.871,VALID,0,INVALID,114.435,VALID,191.353,VALID,20.8145,VALID,105,VALID,0,
2016-06-14, 07:55:04,VALID,918.874,VALID,0,INVALID,113.833,VALID,164.492,VALID,20.873,VALID,105,VALID,0,
2016-06-14, 07:56:04,VALID,918.904,VALID,0,INVALID,113.192,VALID,165.03,VALID,20.9316,VALID,105,VALID,0,
2016-06-14, 07:57:04,VALID,918.904,VALID,0,INVALID,112.057,VALID,164.6,VALID,20.9316,VALID,99,VALID,0,
2016-06-14, 07:58:04,VALID,918.904,VALID,0,INVALID,112.171,VALID,164.815,VALID,21.0096,VALID,99,VALID,0,
2016-06-14, 07:59:04,VALID,918.902,VALID,0,INVALID,112.781,VALID,164.6,VALID,21.0681,VALID,88,VALID,0,
2016-06-14, 08:00:04,VALID,918.904,VALID,0,INVALID,112.857,VALID,164.17,VALID,21.1266,VALID,88,VALID,0,
2016-06-14, 08:01:04,VALID,918.928,VALID,0,INVALID,112.072,VALID,163.848,VALID,21.1071,VALID,89,VALID,0,
2016-06-14, 08:02:04,VALID,918.952,VALID,0,INVALID,111.5,VALID,164.815,VALID,21.1266,VALID,91,VALID,0,
2016-06-14, 08:03:04,VALID,918.993,VALID,0,INVALID,110.814,VALID,166.426,VALID,21.086,VALID,88,VALID,0,
2016-06-14, 08:04:04,VALID,919.028,VALID,0,INVALID,110.036,VALID,168.575,VALID,21.0681,VALID,88,VALID,0,
2016-06-14, 08:05:04,VALID,919.051,VALID,0,VALID,104,VALID,171.261,VALID,21.0291,VALID,88,VALID,0,
2016-06-14, 08:06:04,VALID,919.054,VALID,0,VALID,104,VALID,173.947,VALID,21.047,VALID,88,VALID,0,
2016-06-14, 08:07:04,VALID,919.074,VALID,0,INVALID,110.151,VALID,177.278,VALID,21.1055,VALID,88,VALID,0,
2016-06-14, 08:08:04,VALID,919.072,VALID,0,INVALID,111.066,VALID,180.071,VALID,21.2047,VALID,126,VALID,0,
2016-06-14, 08:09:04,VALID,919.065,VALID,0,INVALID,111.035,VALID,180.286,VALID,21.1657,VALID,146,VALID,0,
2016-06-14, 08:10:04,VALID,919.045,VALID,0,INVALID,110.41,VALID,178.567,VALID,21.0876,VALID,146,VALID,0,
2016-06-14, 08:11:04,VALID,919.044,VALID,0,INVALID,111.18,VALID,177.923,VALID,21.086,VALID,146,VALID,0,
2016-06-14, 08:12:04,VALID,919.017,VALID,0,INVALID,111.531,VALID,186.196,VALID,21.1461,VALID,146,VALID,0,
2016-06-14, 08:13:04,VALID,918.995,VALID,0,INVALID,111.782,VALID,246.685,VALID,21.2437,VALID,146,VALID,0,
2016-06-14, 08:14:04,VALID,919.018,VALID,0,INVALID,112.011,VALID,400.003,VALID,21.3591,VALID,146,VALID,0,
2016-06-14, 08:15:04,VALID,919.036,VALID,0,INVALID,111.233,VALID,404.623,VALID,21.4973,VALID,146,VALID,0,
2016-06-14, 08:16:04,VALID,919.059,VALID,0,INVALID,110.883,VALID,471.667,VALID,21.5932,VALID,146,VALID,0,
2016-06-14, 08:17:04,VALID,919.049,VALID,0,INVALID,110.578,VALID,456.41,VALID,21.7298,VALID,146,VALID,0,
2016-06-14, 08:18:04,VALID,919.064,VALID,0,INVALID,109.03,VALID,457.699,VALID,21.7493,VALID,146,VALID,0,
2016-06-14, 08:19:04,VALID,919.099,VALID,0,VALID,104,VALID,447.922,VALID,21.7867,VALID,163,VALID,0,
2016-06-14, 08:20:04,VALID,919.111,VALID,0,VALID,104,VALID,435.244,VALID,21.9054,VALID,228,VALID,0,
2016-06-14, 08:21:04,VALID,919.127,VALID,0,VALID,104,VALID,389.367,VALID,22.003,VALID,277,VALID,0,
2016-06-14, 08:22:04,VALID,919.148,VALID,0,VALID,104,VALID,408.599,VALID,22.042,VALID,279,VALID,0,
2016-06-14, 08:23:04,VALID,919.158,VALID,0,VALID,104,VALID,399.359,VALID,22.1184,VALID,280,VALID,0,
2016-06-14, 08:24:04,VALID,919.166,VALID,0,VALID,104,VALID,394.739,VALID,22.1769,VALID,267,VALID,0,
2016-06-14, 08:25:04,VALID,919.17,VALID,0,VALID,104,VALID,392.483,VALID,22.1964,VALID,267,VALID,0,
2016-06-14, 08:26:04,VALID,919.186,VALID,0,VALID,103.861,VALID,390.871,VALID,22.2354,VALID,267,VALID,0,
2016-06-14, 08:27:04,VALID,919.222,VALID,0,VALID,101.308,VALID,345.423,VALID,22.2159,VALID,267,VALID,0,
2016-06-14, 08:28:04,VALID,919.236,VALID,0,VALID,94.3017,VALID,381.524,VALID,22.2159,VALID,268,VALID,0,
2016-06-14, 08:29:04,VALID,919.205,VALID,0,VALID,87.6922,VALID,377.978,VALID,22.2745,VALID,267,VALID,0,
2016-06-14, 08:30:04,VALID,919.215,VALID,0,VALID,85.5576,VALID,379.375,VALID,22.3525,VALID,267,VALID,0,
2016-06-14, 08:31:04,VALID,919.233,VALID,0,VALID,80.3508,VALID,380.449,VALID,22.4518,VALID,267,VALID,0,
2016-06-14, 08:32:04,VALID,919.269,VALID,0,VALID,78.5745,VALID,382.168,VALID,22.4908,VALID,268,VALID,0,
2016-06-14, 08:33:04,VALID,919.284,VALID,0,VALID,79.032,VALID,381.953,VALID,22.5884,VALID,267,VALID,0,
2016-06-14, 08:34:04,VALID,919.259,VALID,0,VALID,80.2441,VALID,383.887,VALID,22.725,VALID,279,VALID,0,
2016-06-14, 08:35:04,VALID,919.247,VALID,0,VALID,78.0333,VALID,385.177,VALID,22.977,VALID,280,VALID,0,
2016-06-14, 08:36:04,VALID,919.261,VALID,0,VALID,76.0588,VALID,387.648,VALID,23.2893,VALID,279,VALID,0,
2016-06-14, 08:37:04,VALID,919.242,VALID,0,VALID,73.909,VALID,387.003,VALID,23.4472,VALID,268,VALID,0,
2016-06-14, 08:38:04,VALID,919.23,VALID,0,VALID,74.1835,VALID,388.185,VALID,23.5253,VALID,268,VALID,0,
2016-06-14, 08:39:04,VALID,919.187,VALID,0,VALID,74.3131,VALID,390.226,VALID,23.5217,VALID,275,VALID,0,
2016-06-14, 08:40:04,VALID,919.223,VALID,0,VALID,74.8162,VALID,393.664,VALID,23.4241,VALID,306,VALID,0,
2016-06-14, 08:41:04,VALID,919.184,VALID,0,VALID,77.4387,VALID,396.565,VALID,23.4241,VALID,354,VALID,0,
2016-06-14, 08:42:04,VALID,919.164,VALID,0,VALID,77.6445,VALID,399.681,VALID,23.6016,VALID,38,VALID,0,
2016-06-14, 08:43:04,VALID,919.185,VALID,0,VALID,78.8109,VALID,403.334,VALID,23.7364,VALID,26,VALID,0,
2016-06-14, 08:44:04,VALID,919.188,VALID,0,VALID,78.5136,VALID,407.309,VALID,23.7755,VALID,14,VALID,0,
2016-06-14, 08:45:04,VALID,919.164,VALID,0,VALID,76.1122,VALID,411.177,VALID,23.7364,VALID,358,VALID,0,
2016-06-14, 08:46:04,VALID,919.162,VALID,0,VALID,79.8553,VALID,414.186,VALID,23.7169,VALID,20,VALID,0,
2016-06-14, 08:47:04,VALID,919.188,VALID,0,VALID,78.7194,VALID,417.087,VALID,23.8145,VALID,350,VALID,0,
2016-06-14, 08:48:04,VALID,919.189,VALID,0,VALID,78.9252,VALID,420.525,VALID,23.9121,VALID,7,VALID,0,
2016-06-14, 08:49:04,VALID,919.177,VALID,0,VALID,76.9279,VALID,425.145,VALID,23.8517,VALID,360,VALID,0,
2016-06-14, 08:50:04,VALID,919.215,VALID,0,VALID,77.0117,VALID,427.616,VALID,23.8713,VALID,334,VALID,0,
2016-06-14, 08:51:04,VALID,919.179,VALID,0,VALID,78.1019,VALID,432.451,VALID,23.9121,VALID,37,VALID,0,
2016-06-14, 08:52:04,VALID,919.239,VALID,0,VALID,75.083,VALID,435.137,VALID,23.9121,VALID,27,VALID,0,
2016-06-14, 08:53:04,VALID,919.237,VALID,0,VALID,76.7907,VALID,437.285,VALID,23.8536,VALID,42,VALID,0,
2016-06-14, 08:54:04,VALID,919.249,VALID,0,VALID,76.379,VALID,440.831,VALID,23.9121,VALID,43,VALID,0,
2016-06-14, 08:55:04,VALID,919.217,VALID,0,VALID,74.6714,VALID,442.658,VALID,24.0683,INVALID,360,VALID,0,
2016-06-14, 08:56:04,VALID,919.231,VALID,0,VALID,72.5597,VALID,445.666,VALID,24.2049,VALID,35,VALID,0,
2016-06-14, 08:57:04,VALID,919.268,VALID,0,VALID,75.2279,VALID,447.17,VALID,24.283,VALID,36,VALID,0,
2016-06-14, 08:58:04,VALID,919.259,VALID,0,VALID,73.9624,VALID,449.964,VALID,24.4392,INVALID,360,VALID,0,
2016-06-14, 08:59:04,VALID,919.259,VALID,0,VALID,72.331,VALID,452.542,VALID,24.5954,VALID,336,VALID,0,
2016-06-14, 09:00:04,VALID,919.233,VALID,0,VALID,73.322,VALID,455.336,VALID,24.5759,VALID,20,VALID,0,
2016-06-14, 09:01:04,VALID,919.232,VALID,0,VALID,73.4974,VALID,457.699,VALID,24.6345,VALID,32,VALID,0,
2016-06-14, 09:02:04,VALID,919.213,VALID,0,VALID,72.3691,VALID,459.848,VALID,24.7107,VALID,348,VALID,0,
2016-06-14, 09:03:04,VALID,919.229,VALID,0,VALID,68.8928,VALID,463.931,VALID,24.8102,VALID,199,VALID,0,
2016-06-14, 09:04:04,VALID,919.183,VALID,0,VALID,72.209,VALID,463.394,VALID,24.9078,INVALID,360,VALID,0,
2016-06-14, 09:05:04,VALID,919.205,VALID,0,VALID,73.1314,VALID,466.939,VALID,25.1012,VALID,19,VALID,0,
2016-06-14, 09:06:04,VALID,919.215,VALID,0,VALID,69.5027,VALID,468.981,VALID,25.1988,VALID,292,VALID,0,
2016-06-14, 09:07:04,VALID,919.195,VALID,0,VALID,69.9906,VALID,472.849,VALID,25.1988,VALID,213,VALID,0,
2016-06-14, 09:08:04,VALID,919.203,VALID,0,VALID,71.6754,VALID,475.32,VALID,25.1012,VALID,259,VALID,0,
2016-06-14, 09:09:04,VALID,919.221,VALID,0,VALID,71.096,VALID,477.576,VALID,24.9255,VALID,249,VALID,0,
2016-06-14, 09:10:04,VALID,919.223,VALID,0,VALID,73.9166,VALID,482.948,VALID,24.7497,VALID,257,VALID,0,
2016-06-14, 09:11:04,VALID,919.216,VALID,0,VALID,70.974,VALID,483.593,VALID,24.7126,VALID,274,VALID,0,
2016-06-14, 09:12:04,VALID,919.266,VALID,0,VALID,73.7108,VALID,488.427,VALID,24.7711,VALID,294,VALID,0,
2016-06-14, 09:13:04,VALID,919.275,VALID,0,VALID,67.795,VALID,490.147,VALID,24.654,VALID,304,VALID,0,
2016-06-14, 09:14:04,VALID,919.232,VALID,0,VALID,68.2448,VALID,494.444,VALID,24.5564,VALID,290,VALID,0,
2016-06-14, 09:15:04,VALID,919.249,VALID,0,VALID,70.1126,VALID,497.13,VALID,24.5173,VALID,341,VALID,0,
2016-06-14, 09:16:04,VALID,919.196,VALID,0,VALID,69.8305,VALID,497.345,VALID,24.6149,VALID,305,VALID,0,
2016-06-14, 09:17:04,VALID,919.211,VALID,0,VALID,69.922,VALID,501.428,VALID,24.7693,VALID,293,VALID,0,
2016-06-14, 09:18:04,VALID,919.192,VALID,0,VALID,68.9919,VALID,501.75,VALID,24.7126,VALID,293,VALID,0,
2016-06-14, 09:19:04,VALID,919.167,VALID,0,VALID,70.7834,VALID,506.8,VALID,24.5954,VALID,319,VALID,0,
2016-06-14, 09:20:04,VALID,919.176,VALID,0,VALID,72.857,VALID,510.238,VALID,24.5759,VALID,290,VALID,0,
2016-06-14, 09:21:04,VALID,919.161,VALID,0,VALID,70.6919,VALID,513.246,VALID,24.6716,VALID,33,VALID,0,
2016-06-14, 09:22:04,VALID,919.164,VALID,0,VALID,70.1049,VALID,516.792,VALID,24.8474,VALID,32,VALID,0,
2016-06-14, 09:23:04,VALID,919.154,VALID,0,VALID,70.5776,VALID,519.048,VALID,25.0426,INVALID,360,VALID,0,
2016-06-14, 09:24:04,VALID,919.144,VALID,0,VALID,69.396,VALID,521.197,VALID,25.2379,VALID,9,VALID,0,
2016-06-14, 09:25:04,VALID,919.125,VALID,0,VALID,68.3363,VALID,524.205,VALID,25.3941,VALID,41,VALID,0,
2016-06-14, 09:26:04,VALID,919.133,VALID,0,VALID,66.6973,VALID,527.106,VALID,25.5289,VALID,298,VALID,0,
2016-06-14, 09:27:04,VALID,919.113,VALID,0,VALID,66.2399,VALID,529.792,VALID,25.4331,VALID,244,VALID,0,
2016-06-14, 09:28:04,VALID,919.128,VALID,0,VALID,67.3529,VALID,532.801,VALID,25.2965,VALID,322,VALID,0,
2016-06-14, 09:29:04,VALID,919.131,VALID,0,VALID,69.0453,VALID,534.627,VALID,25.4136,VALID,28,VALID,0.586719,
2016-06-14, 09:30:04,VALID,919.128,VALID,0,VALID,65.7291,VALID,536.561,VALID,25.4331,VALID,310,VALID,0,
2016-06-14, 09:31:04,VALID,919.114,VALID,0,VALID,67.3834,VALID,537.528,VALID,25.3355,VALID,10,VALID,0,
2016-06-14, 09:32:04,VALID,919.106,VALID,0,VALID,67.2004,VALID,530.437,VALID,25.3726,VALID,269,VALID,0,
2016-06-14, 09:33:04,VALID,919.14,VALID,0,VALID,67.6197,VALID,528.825,VALID,25.4917,VALID,57,VALID,0,
2016-06-14, 09:34:04,VALID,919.114,VALID,0,VALID,65.5156,VALID,536.454,VALID,25.5874,VALID,62,VALID,0,
2016-06-14, 09:35:04,VALID,919.126,VALID,0,VALID,68.5116,VALID,524.743,VALID,25.687,VALID,67,VALID,0,
2016-06-14, 09:36:04,VALID,919.125,VALID,0,VALID,67.391,VALID,534.842,VALID,25.6851,VALID,66,VALID,0,
2016-06-14, 09:37:04,VALID,919.163,VALID,0,VALID,70.6233,VALID,550.206,VALID,25.7632,VALID,54,VALID,0,
2016-06-14, 09:38:04,VALID,919.111,VALID,0,VALID,69.7085,VALID,554.181,VALID,25.8608,VALID,32,VALID,1.70977,
2016-06-14, 09:39:04,VALID,919.111,VALID,0,VALID,67.6273,VALID,561.917,VALID,25.8218,VALID,3,VALID,0,
2016-06-14, 09:40:04,VALID,919.14,VALID,0,VALID,68.5879,VALID,565.785,VALID,25.7437,VALID,36,VALID,0,
2016-06-14, 09:41:04,VALID,919.143,VALID,0,VALID,67.4367,VALID,565.57,VALID,25.7437,VALID,9,VALID,0,
2016-06-14, 09:42:04,VALID,919.14,VALID,0,VALID,67.8789,VALID,564.281,VALID,25.7651,VALID,26,VALID,0,
2016-06-14, 09:43:04,VALID,919.151,VALID,0,VALID,67.5206,VALID,565.785,VALID,25.8628,INVALID,360,VALID,0,
2016-06-14, 09:44:04,VALID,919.126,VALID,0,VALID,66.0798,VALID,575.025,VALID,25.9409,VALID,11,VALID,0,
2016-06-14, 09:45:04,VALID,919.146,VALID,0,VALID,66.7583,VALID,492.295,VALID,25.8218,VALID,6,VALID,0,
2016-06-14, 09:46:04,VALID,919.155,VALID,0,VALID,67.8865,VALID,583.298,VALID,25.8804,VALID,37,VALID,0,
2016-06-14, 09:47:04,VALID,919.133,VALID,0,VALID,65.7672,VALID,576.852,VALID,25.8999,VALID,247,VALID,0,
2016-06-14, 09:48:04,VALID,919.134,VALID,0,VALID,66.2627,VALID,590.819,VALID,25.8218,VALID,268,VALID,0,
2016-06-14, 09:49:04,VALID,919.123,VALID,0,VALID,66.6363,VALID,587.166,VALID,25.8218,VALID,272,VALID,0,
2016-06-14, 09:50:04,VALID,919.163,VALID,0,VALID,67.4062,VALID,598.125,VALID,25.9194,VALID,271,VALID,0,
2016-06-14, 09:51:04,VALID,919.157,VALID,0,VALID,65.8206,VALID,602.745,VALID,25.9174,VALID,271,VALID,0,
2016-06-14, 09:52:04,VALID,919.133,VALID,0,VALID,65.3708,VALID,601.026,VALID,25.9194,VALID,275,VALID,0,
2016-06-14, 09:53:04,VALID,919.168,VALID,0,VALID,66.6515,VALID,605.216,VALID,25.978,VALID,355,VALID,0,
2016-06-14, 09:54:04,VALID,919.169,VALID,0,VALID,62.3138,VALID,602.315,VALID,26.0366,VALID,294,VALID,0,
2016-06-14, 09:55:04,VALID,919.187,VALID,0,VALID,64.4179,VALID,595.117,VALID,25.978,VALID,21,VALID,0,
2016-06-14, 09:56:04,VALID,919.166,VALID,0,VALID,63.8309,VALID,593.827,VALID,26.0561,VALID,269,VALID,0,
2016-06-14, 09:57:04,VALID,919.174,VALID,0,VALID,64.8067,VALID,597.265,VALID,25.9565,VALID,294,VALID,0,
2016-06-14, 09:58:04,VALID,919.166,VALID,0,VALID,66.0874,VALID,602.208,VALID,25.5269,VALID,296,VALID,0,
2016-06-14, 09:59:04,VALID,919.155,VALID,0,VALID,67.9246,VALID,604.357,VALID,25.2731,VALID,301,VALID,0,
2016-06-14, 10:00:04,VALID,919.153,VALID,0,VALID,68.6031,VALID,610.91,VALID,25.3726,VALID,331,VALID,0,
2016-06-14, 10:01:04,VALID,919.138,VALID,0,VALID,67.7417,VALID,600.596,VALID,25.6655,VALID,342,VALID,0,
2016-06-14, 10:02:04,VALID,919.131,VALID,0,VALID,63.038,VALID,604.571,VALID,25.9389,VALID,314,VALID,0,
2016-06-14, 10:03:04,VALID,919.072,VALID,0,VALID,64.9744,VALID,605.216,VALID,25.9585,VALID,4,VALID,0.449609,
2016-06-14, 10:04:04,VALID,919.108,VALID,0,VALID,62.8856,VALID,600.166,VALID,25.9389,VALID,14,VALID,0.213672,
2016-06-14, 10:05:04,VALID,919.08,VALID,0,VALID,64.0672,VALID,608.332,VALID,25.978,VALID,327,VALID,0.561719,
2016-06-14, 10:06:04,VALID,919.067,VALID,0,VALID,64.9286,VALID,625.415,VALID,26.0171,VALID,332,VALID,0.389453,
2016-06-14, 10:07:04,VALID,919.055,VALID,0,VALID,64.6237,VALID,596.191,VALID,26.1733,VALID,325,VALID,0.356641,
2016-06-14, 10:08:04,VALID,919.077,VALID,0,VALID,62.8551,VALID,625.845,VALID,26.2124,VALID,291,VALID,1.10586,
2016-06-14, 10:09:04,VALID,919.059,VALID,0,VALID,64.9286,VALID,610.266,VALID,26.0952,VALID,301,VALID,0,
2016-06-14, 10:10:04,VALID,919.042,VALID,0,VALID,65.3632,VALID,650.986,VALID,25.978,VALID,303,VALID,0,
2016-06-14, 10:11:04,VALID,919.055,VALID,0,VALID,65.2793,VALID,665.598,VALID,25.8413,VALID,288,VALID,0,
2016-06-14, 10:12:04,VALID,919.02,VALID,0,VALID,67.2614,VALID,640.672,VALID,25.7827,VALID,22,VALID,0.288672,
2016-06-14, 10:13:04,VALID,919.029,VALID,0,VALID,66.7049,VALID,626.489,VALID,25.7241,VALID,13,VALID,0.9,
2016-06-14, 10:14:04,VALID,918.988,VALID,0,VALID,64.5627,VALID,682.036,VALID,25.7632,VALID,20,VALID,0,
2016-06-14, 10:15:04,VALID,919.019,VALID,0,VALID,62.6035,VALID,533.66,VALID,25.9585,VALID,328,VALID,0,
2016-06-14, 10:16:04,VALID,918.942,VALID,0,VALID,63.1676,VALID,541.933,VALID,25.8804,VALID,306,VALID,0,
2016-06-14, 10:17:04,VALID,918.944,VALID,0,VALID,63.564,VALID,542.685,VALID,25.7437,VALID,308,VALID,0,
2016-06-14, 10:18:04,VALID,918.934,VALID,0,VALID,63.099,VALID,648.085,VALID,25.4117,VALID,302,VALID,0,
2016-06-14, 10:19:04,VALID,918.893,VALID,0,VALID,64.7685,VALID,631.647,VALID,25.1579,VALID,289,VALID,0,
2016-06-14, 10:20:04,VALID,918.928,VALID,0,VALID,66.4305,VALID,654.854,VALID,25.0212,VALID,288,VALID,0,
2016-06-14, 10:21:04,VALID,918.878,VALID,0,VALID,69.4646,VALID,592.323,VALID,25.1188,VALID,296,VALID,0,
2016-06-14, 10:22:04,VALID,918.873,VALID,0,VALID,67.8636,VALID,511.635,VALID,25.3336,VALID,2,VALID,0,
2016-06-14, 10:23:04,VALID,918.893,VALID,0,VALID,65.1954,VALID,510.453,VALID,25.5093,VALID,342,VALID,0,
2016-06-14, 10:24:04,VALID,918.88,VALID,0,VALID,63.4802,VALID,512.924,VALID,25.5093,VALID,320,VALID,0,
2016-06-14, 10:25:04,VALID,918.903,VALID,0,VALID,65.6986,VALID,593.72,VALID,25.5503,VALID,1,VALID,0,
2016-06-14, 10:26:04,VALID,918.898,VALID,0,VALID,64.2959,VALID,771.857,VALID,25.5484,VALID,315,VALID,0,
2016-06-14, 10:27:04,VALID,918.932,VALID,0,VALID,66.3466,VALID,794.098,VALID,25.4488,VALID,353,VALID,0,
2016-06-14, 10:28:04,VALID,918.915,VALID,0,VALID,65.3708,VALID,777.766,VALID,25.646,VALID,335,VALID,0,
2016-06-14, 10:29:04,VALID,918.916,VALID,0,VALID,62.5882,VALID,831.38,VALID,25.8608,VALID,287,VALID,0,
2016-06-14, 10:30:04,VALID,918.909,VALID,0,VALID,63.7089,VALID,762.402,VALID,26.0171,VALID,282,VALID,0,
2016-06-14, 10:31:04,VALID,918.919,VALID,0,VALID,64.7685,VALID,654.854,VALID,26.1147,VALID,337,VALID,0,
2016-06-14, 10:32:04,VALID,918.903,VALID,0,VALID,64.86,VALID,443.839,VALID,26.2319,VALID,337,VALID,0,
2016-06-14, 10:33:04,VALID,918.921,VALID,0,VALID,63.3811,VALID,508.626,VALID,26.2905,VALID,14,VALID,0.200391,
2016-06-14, 10:34:04,VALID,918.902,VALID,0,VALID,62.8093,VALID,512.709,VALID,26.31,VALID,32,VALID,0,
2016-06-14, 10:35:04,VALID,918.92,VALID,0,VALID,61.9707,VALID,392.375,VALID,26.271,VALID,294,VALID,0,
2016-06-14, 10:36:04,VALID,918.938,VALID,0,VALID,62.5196,VALID,378.085,VALID,26.0171,VALID,292,VALID,0,
2016-06-14, 10:37:04,VALID,918.897,VALID,0,VALID,65.0125,VALID,477.791,VALID,25.8413,VALID,16,VALID,0,
2016-06-14, 10:38:04,VALID,918.904,VALID,0,VALID,64.0291,VALID,423.426,VALID,25.7827,VALID,8,VALID,0,
2016-06-14, 10:39:04,VALID,918.9,VALID,0,VALID,63.2896,VALID,413.219,VALID,25.7827,VALID,27,VALID,0,
2016-06-14, 10:40:04,VALID,918.911,VALID,0,VALID,64.7152,VALID,362.506,VALID,25.8218,VALID,27,VALID,0,
2016-06-14, 10:41:04,VALID,918.901,VALID,0,VALID,65.8053,VALID,406.772,VALID,25.9194,VALID,32,VALID,0,
2016-06-14, 10:42:04,VALID,918.903,VALID,0,VALID,64.3188,VALID,418.268,VALID,25.9956,VALID,24,VALID,0,
2016-06-14, 10:43:04,VALID,918.862,VALID,0,VALID,65.6986,VALID,356.919,VALID,26.2319,VALID,33,VALID,0,
2016-06-14, 10:44:04,VALID,918.839,VALID,0,VALID,62.0165,VALID,427.401,VALID,26.3882,VALID,6,VALID,0,
2016-06-14, 10:45:04,VALID,918.832,VALID,0,VALID,63.3201,VALID,374.325,VALID,26.5835,VALID,6,VALID,0,
2016-06-14, 10:46:04,VALID,918.807,VALID,0,VALID,62.6035,VALID,495.626,VALID,26.6616,VALID,16,VALID,0,
2016-06-14, 10:47:04,VALID,918.795,VALID,0,VALID,63.343,VALID,914.539,VALID,26.6401,VALID,358,VALID,0,
2016-06-14, 10:48:04,VALID,918.815,VALID,0,VALID,62.9161,VALID,856.091,VALID,26.7963,VALID,14,VALID,0,
2016-06-14, 10:49:04,VALID,918.789,VALID,0,VALID,62.2223,VALID,841.801,VALID,27.0893,VALID,23,VALID,0,
2016-06-14, 10:50:04,VALID,918.757,VALID,0,VALID,61.925,VALID,823.966,VALID,27.3844,VALID,23,VALID,0,
2016-06-14, 10:51:04,VALID,918.751,VALID,0,VALID,59.4474,VALID,914.324,VALID,27.5582,VALID,335,VALID,0,
2016-06-14, 10:52:04,VALID,918.753,VALID,0,VALID,59.3635,VALID,770.675,VALID,27.6754,VALID,266,VALID,0,
2016-06-14, 10:53:04,VALID,918.748,VALID,0,VALID,59.4398,VALID,747.468,VALID,27.7536,VALID,266,VALID,0,
2016-06-14, 10:54:04,VALID,918.77,VALID,0,VALID,60.8272,VALID,473.923,VALID,27.5603,VALID,238,VALID,0,
2016-06-14, 10:55:04,VALID,918.717,VALID,0,VALID,60.286,VALID,390.334,VALID,27.4019,VALID,250,VALID,0,
2016-06-14, 10:56:04,VALID,918.729,VALID,0,VALID,60.0268,VALID,318.993,VALID,27.1675,VALID,291,VALID,0,
2016-06-14, 10:57:04,VALID,918.691,VALID,0,VALID,62.4205,VALID,298.794,VALID,26.7768,VALID,319,VALID,0,
2016-06-14, 10:58:04,VALID,918.676,VALID,0,VALID,62.7178,VALID,320.067,VALID,26.6421,VALID,316,VALID,0.00234375,
2016-06-14, 10:59:04,VALID,918.662,VALID,0,VALID,64.86,VALID,513.891,VALID,26.4272,VALID,201,VALID,0,
2016-06-14, 11:00:04,VALID,918.646,VALID,0,VALID,63.6174,VALID,456.41,VALID,26.269,VALID,243,VALID,0,
2016-06-14, 11:01:04,VALID,918.644,VALID,0,VALID,64.3416,VALID,386.681,VALID,25.9174,VALID,244,VALID,0,
2016-06-14, 11:02:04,VALID,918.61,VALID,0,VALID,67.3986,VALID,581.686,VALID,25.7437,VALID,265,VALID,0,
2016-06-14, 11:03:04,VALID,918.59,VALID,0,VALID,67.6426,VALID,398.607,VALID,25.6655,VALID,328,VALID,0,
2016-06-14, 11:04:04,VALID,918.605,VALID,0,VALID,68.7327,VALID,415.045,VALID,25.7026,VALID,327,VALID,0,
2016-06-14, 11:05:04,VALID,918.585,VALID,0,VALID,67.2157,VALID,523.561,VALID,25.8784,VALID,14,VALID,0.0289063,
2016-06-14, 11:06:04,VALID,918.523,VALID,0,VALID,69.6475,VALID,609.943,VALID,26.0151,VALID,360,VALID,0,
2016-06-14, 11:07:04,VALID,918.531,VALID,0,VALID,68.2372,VALID,584.372,VALID,26.1518,VALID,331,VALID,0,
2016-06-14, 11:08:04,VALID,918.526,VALID,0,VALID,66.0721,VALID,765.088,VALID,26.3882,VALID,353,VALID,0,
2016-06-14, 11:09:04,VALID,918.506,VALID,0,VALID,63.6098,VALID,626.597,VALID,26.6226,VALID,28,VALID,0,
2016-06-14, 11:10:04,VALID,918.511,VALID,0,VALID,65.8358,VALID,497.99,VALID,26.6791,VALID,32,VALID,0,
2016-06-14, 11:11:04,VALID,918.531,VALID,0,VALID,64.6237,VALID,593.935,VALID,26.7593,VALID,340,VALID,0,
2016-06-14, 11:12:04,VALID,918.538,VALID,0,VALID,66.5219,VALID,685.152,VALID,26.7984,VALID,32,VALID,0.816016,
2016-06-14, 11:13:04,VALID,918.533,VALID,0,VALID,63.6708,VALID,593.505,VALID,26.7768,VALID,9,VALID,1.04336,
2016-06-14, 11:14:04,VALID,918.515,VALID,0,VALID,63.16,VALID,625.2,VALID,26.5444,VALID,2,VALID,0.0914062,
2016-06-14, 11:15:04,VALID,918.517,VALID,0,VALID,63.4878,VALID,603.175,VALID,26.31,VALID,349,VALID,0,
2016-06-14, 11:16:04,VALID,918.484,VALID,0,VALID,65.7443,VALID,472.849,VALID,26.1342,VALID,18,VALID,0.526953,
2016-06-14, 11:17:04,VALID,918.506,VALID,0,VALID,65.0049,VALID,446.525,VALID,26.0171,VALID,39,VALID,0,
2016-06-14, 11:18:04,VALID,918.48,VALID,0,VALID,67.0174,VALID,530.222,VALID,25.937,VALID,53,VALID,0,
2016-06-14, 11:19:04,VALID,918.491,VALID,0,VALID,68.748,VALID,423.64,VALID,25.9565,VALID,53,VALID,0,
2016-06-14, 11:20:04,VALID,918.468,VALID,0,VALID,66.3085,VALID,419.343,VALID,26.1538,VALID,54,VALID,0,
2016-06-14, 11:21:04,VALID,918.458,VALID,0,VALID,66.4838,VALID,416.442,VALID,26.3296,VALID,6,VALID,0,
2016-06-14, 11:22:04,VALID,918.461,VALID,0,VALID,67.1775,VALID,449.104,VALID,26.4468,VALID,15,VALID,0,
2016-06-14, 11:23:04,VALID,918.46,VALID,0,VALID,66.0569,VALID,545.801,VALID,26.4643,VALID,39,VALID,0,
2016-06-14, 11:24:04,VALID,918.444,VALID,0,VALID,64.3188,VALID,468.658,VALID,26.4663,VALID,29,VALID,0,
2016-06-14, 11:25:04,VALID,918.387,VALID,0,VALID,67.2462,VALID,434.814,VALID,26.4077,VALID,357,VALID,0,
2016-06-14, 11:26:04,VALID,918.367,VALID,0,VALID,67.6959,VALID,695.037,VALID,26.2905,VALID,38,VALID,0,
2016-06-14, 11:27:04,VALID,918.332,VALID,0,VALID,71.1265,VALID,545.586,VALID,26.4077,VALID,23,VALID,1.31211,
2016-06-14, 11:28:04,VALID,918.326,VALID,0,VALID,67.1242,VALID,460.493,VALID,26.603,VALID,34,VALID,0,
2016-06-14, 11:29:04,VALID,918.288,VALID,0,VALID,63.9833,VALID,1028.32,VALID,26.6812,VALID,343,VALID,0,
2016-06-14, 11:30:04,VALID,918.293,VALID,0,VALID,65.5385,VALID,610.373,VALID,26.8765,VALID,39,VALID,0,
2016-06-14, 11:31:04,VALID,918.281,VALID,0,VALID,66.4,VALID,595.117,VALID,27.1305,VALID,40,VALID,0,
2016-06-14, 11:32:04,VALID,918.271,VALID,0,VALID,63.9681,VALID,753.377,VALID,27.1891,VALID,28,VALID,0,